Location: Fort Wayne
(41.1310°N, 85.1290°W)
Time: 11:16:36
(UTC-04:00)

Vanguard 3 - Visible Passes

Search period start: 25 October 2014 00:00
Search period end: 03 November 2014 23:00
Orbit: 508 x 3278 km, 33.3° (Epoch: 24 October)

Date Brightness Start Highest point End Pass type
(mag) Time Alt. Az. Time Alt. Az. Time Alt. Az.
25 Oct 10.6 22:10:05 10° SSW 22:14:32 17° S 22:14:32 17° S visible
26 Oct 10.5 20:58:36 10° S 21:06:31 16° SSE 21:06:54 16° SSE visible
26 Oct 10.7 23:08:54 10° SW 23:11:39 16° SSW 23:11:39 16° SSW visible
27 Oct 10.3 21:55:29 10° SSW 22:04:00 25° S 22:04:00 25° S visible
28 Oct 10.3 20:43:03 10° S 20:54:08 21° SSE 20:56:19 21° SE visible
28 Oct 10.4 22:55:04 10° SW 23:01:05 24° SSW 23:01:05 24° SSW visible
29 Oct 10.6 19:32:40 10° S 19:40:44 15° SE 19:47:35 10° ESE visible
29 Oct 10.0 21:41:10 10° SSW 21:53:22 33° S 21:53:22 33° S visible
29 Oct 10.9 23:55:59 10° WSW 23:58:08 15° WSW 23:58:08 15° WSW visible
30 Oct 10.1 20:28:07 10° SSW 20:41:36 27° SSE 20:45:38 24° SE visible
30 Oct 10.1 22:41:19 10° SW 22:50:23 33° SSW 22:50:23 33° SSW visible
31 Oct 10.6 19:16:37 10° S 19:28:03 20° SE 19:37:24 10° ESE visible
31 Oct 9.7 21:27:02 10° SW 21:42:31 40° SSE 21:42:37 40° SSE visible
31 Oct 10.6 23:42:37 10° WSW 23:47:22 22° WSW 23:47:22 22° WSW visible
01 Nov 10.0 20:13:35 10° SSW 20:28:56 32° SSE 20:34:49 25° ESE visible
01 Nov 9.8 22:27:39 10° WSW 22:39:33 43° SSW 22:39:33 43° SSW visible
02 Nov 10.6 18:01:27 10° S 18:15:13 24° SE 18:26:24 10° E visible
02 Nov 9.6 20:13:05 10° SW 20:29:55 46° SSE 20:31:42 44° SE visible
02 Nov 10.4 22:29:14 10° WSW 22:36:27 29° WSW 22:36:27 29° WSW visible
03 Nov 10.1 18:59:21 10° SSW 19:16:08 38° SSE 19:23:49 24° ESE visible
03 Nov 9.6 21:14:03 10° WSW 21:28:34 52° SSW 21:28:34 52° SSW visible
